Flag for Bermuda Weather past 2 weeks in Hamilton, Bermuda

Now
75 °F

Scattered showers. Overcast.


Feels Like: 74 °F
Forecast: 76 / 83 °F
Wind: 10 mph from South

Location: Bermuda

Current Time: Sep 30, 2014 at 3:54:34 AM

Latest Report: Sep 30, 2014 at 2:55 AM


Visibility: N/A

Pressure: 29.83 "Hg

Humidity: 94%

Dew point: 73 °F

Location of HamiltonLocation

Historic Weather in Hamilton — Graph

°F

Hamilton temperature yesterday

Maximum temperature yesterday: 81 °F (at 11:55 AM)
Minimum temperature yesterday: 70 °F (at 3:55 AM)
Average temperature yesterday: 76 °F

Past Weeks' High & Low Weather Summary

 TemperatureHumidityPressure
High86 °F (Sep 15, 12:55 PM)100% (Sep 17, 1:55 AM)30.30 "Hg (Sep 17, 1:55 AM)
Low70 °F (Sep 29, 3:55 AM)66% (Sep 15, 12:55 PM)29.83 "Hg (Sep 29, 3:55 AM)
Average80 °F84%30.04 "Hg
* Reported Sep 15 2:55 AM — Sep 30 2:03 AM, Hamilton, Weather by CustomWeather, © 2014

Note: Actual official high and low records may vary slightly from our data, if they occured in-between our weather recording intervals... More about our weather records

Advertising

Hamilton weather history for previous 24 hours

 ConditionsComfort  
Time TempWeatherWind HumidityBarometerVisibility
2:03 AM
Sep 30
72 °FSprinkles. Overcast.20 mph88%29.86 "HgN/A
1:55 AM72 °FRain showers. Overcast.17 mph88%29.86 "Hg2 mi
12:55 AM75 °FThunderstorms. Mostly cloudy.23 mph100%29.83 "HgN/A
11:55 PM
Sep 29
75 °FScattered showers. Partly cloudy.18 mph94%29.83 "HgN/A
11:04 PM75 °FSprinkles. Overcast.15 mph94%29.83 "HgN/A
10:55 PM75 °FRain showers. Overcast.13 mph94%29.83 "Hg3 mi
9:55 PM79 °FScattered showers. Passing clouds.22 mph79%29.83 "HgN/A
8:55 PM79 °FScattered showers. Partly cloudy.23 mph79%29.83 "HgN/A
7:55 PM77 °FScattered showers. Broken clouds.16 mph83%29.83 "HgN/A
6:55 PM77 °FSprinkles. Partly sunny.17 mph79%29.83 "HgN/A
5:55 PM79 °FSprinkles. Broken clouds.17 mph84%29.83 "HgN/A
4:55 PM77 °FScattered showers. Broken clouds.17 mph83%29.83 "HgN/A
3:55 PM75 °FSprinkles. Broken clouds.16 mph100%29.83 "HgN/A
2:55 PM81 °FScattered showers. Broken clouds.18 mph74%29.83 "HgN/A
1:55 PM81 °FScattered showers. Broken clouds.17 mph74%29.83 "HgN/A
12:55 PM81 °FBroken clouds.17 mph79%29.86 "HgN/A
11:55 AM81 °FScattered clouds.16 mph79%29.86 "HgN/A
10:55 AM77 °FScattered showers. Broken clouds.14 mph83%29.86 "HgN/A
9:55 AM77 °FTornado. Broken clouds.17 mph83%29.86 "HgN/A
8:55 AM77 °FScattered showers. Broken clouds.17 mph83%29.86 "HgN/A
7:55 AM75 °FScattered showers. Partly cloudy.15 mph89%29.83 "HgN/A
6:55 AM73 °FScattered showers. Overcast.18 mph94%29.83 "HgN/A
5:55 AM73 °FSprinkles. Overcast.21 mph94%29.83 "HgN/A
4:55 AM73 °FSprinkles. Overcast.28 mph89%29.83 "HgN/A
3:55 AM70 °FRain showers. Mostly cloudy.21 mph100%29.83 "Hg5 mi
Weather by CustomWeather, © 2014

See weather overviewHow to use our weather pages